Probability
0 0 0 0 0 0 1 0 1 7 17 23 22 16 7 1 0 0 0 0 0 0 0 0 0 0 0 0 0 0 0 0 0 0 0 0 0 0 0 0 0 0 0 0
0 0 0 0 1 2 4 6 9 14 20 21 18 12 5 0 0 0 0 0 0 0 0 0 0 0 0 0 0 0 0 0 0 0 0 0 0 0 0 0 0 0 0 0
0 0 0 0 1 4 9 15 20 24 23 16 9 5 2 0 0 0 0 0 0 0 0 0 0 0 0 0 0 0 0 0 0 0 0 0 0 0 0 0 0 0 0 0
0 0 0 0 1 3 9 16 21 23 18 9 3 1 0 0 0 0 0 0 0 0 0 0 0 0 0 0 0 0 0 0 0 0 0 0 0 0 0 0 0 0 0 0
0 0 0 0 0 1 4 8 11 10 7 3 0 0 0 0 0 0 0 0 0 0 0 0 0 0 0 0 0 0 0 0 0 0 0 0 0 0 0 0 0 0 0 0
0 0 0 0 0 0 0 2 2 2 1 0 0 0 0 0 0 0 0 0 0 0 0 0 0 0 0 0 0 0 0 0 0 0 0 0 0 0 0 0 0 0 0 0
0 0 0 0 0 0 0 0 0 0 0 0 0 0 0 0 0 0 0 0 0 0 0 0 0 0 0 0 0 0 0 0 0 0 0 0 0 0 0 0 0 0 0 0
0 0 0 0 0 0 0 0 0 0 0 0 0 0 0 0 0 0 0 0 0 0 0 0 0 0 0 0 0 0 0 0 0 0 0 0 0 0 0 0 0 0 0 0
0 0 0 0 0 0 0 0 0 0 0 0 0 0 0 0 0 0 0 0 0 0 0 0 0 0 0 0 0 0 0 0 0 0 0 0 0 0 0 0 0 0 0 0
0 0 0 0 0 0 0 0 0 0 0 0 0 0 0 0 0 0 0 0 0 0 0 0 0 0 0 0 0 0 0 0 0 0 0 0 0 0 0 0 0 0 0 0
0 0 0 0 0 0 0 0 0 0 0 0 0 0 0 0 0 0 0 0 0 0 0 0 0 0 0 0 0 0 0 0 0 0 0 0 0 0 0 0 0 0 0 0
0 0 0 0 0 0 0 0 0 0 0 0 0 0 0 0 0 0 0 0 0 0 0 0 0 0 0 0 0 0 0 0 0 0 0 0 1 0 0 0 0 0 0 0
0 0 0 0 0 0 0 0 0 0 0 0 0 0 0 0 0 0 0 0 0 0 0 0 0 0 0 0 0 0 0 0 0 0 0 0 0 0 0 0 0 0 0 0
0 0 0 0 0 0 0 0 0 0 0 0 0 0 0 0 0 0 0 0 0 0 0 0 0 0 0 0 0 0 0 0 0 0 0 0 0 0 0 0 0 0 0 0
0 0 0 0 0 0 0 0 0 0 0 0 0 0 0 0 0 0 0 0 0 0 0 0 0 0 0 0 0 0 0 0 0 0 0 0 0 0 0 0 0 0 0 0
0 0 0 0 0 0 0 0 0 0 0 0 0 0 0 0 0 0 0 0 0 0 0 0 0 0 0 0 0 0 0 0 0 0 0 0 0 0 0 0 0 0 0 0
0 0 0 0 0 0 0 0 0 0 0 0 0 0 0 0 0 0 0 0 0 0 0 0 0 0 0 0 0 0 0 0 0 0 0 0 0 0 0 0 0 0 0 0
0 0 0 0 0 0 0 0 0 0 0 0 0 0 0 0 0 0 0 0 0 0 0 0 0 0 0 0 0 0 0 0 0 0 0 0 0 0 0 0 0 0 0 0
0 0 0 0 0 0 0 0 0 0 0 0 0 0 0 0 0 0 0 0 0 0 0 0 0 0 0 0 0 0 0 0 0 0 0 0 0 0 0 0 0 0 0 0
0 0 0 0 0 0 0 0 0 0 0 0 0 0 0 0 0 0 0 0 0 0 0 0 0 0 0 0 0 0 0 0 0 0 0 0 0 0 0 0 0 0 0 0
0 0 0 0 0 0 0 0 0 0 0 0 0 0 0 0 0 0 0 0 0 0 0 0 0 0 0 0 0 0 0 0 0 0 0 0 0 0 0 0 0 0 0 0
0 0 0 0 0 0 0 0 0 0 0 0 0 0 0 0 0 0 0 0 0 0 0 0 0 0 0 0 0 0 0 0 0 0 0 0 0 0 0 0 0 0 0 0
0 0 0 0 0 0 0 0 0 0 0 0 0 0 0 0 0 0 0 0 0 0 0 0 0 0 0 0 0 0 0 0 0 0 0 0 0 0 0 0 0 0 0 0
0 0 0 0 0 0 0 0 0 0 0 0 0 0 0 0 0 0 0 0 0 0 0 0 0 0 0 0 0 0 0 0 0 0 0 0 0 0 0 0 0 0 0 0
0 0 0 0 0 0 0 0 0 0 0 0 0 0 0 0 0 0 0 0 0 0 0 0 0 0 0 0 0 0 0 0 0 0 0 0 0 0 0 0 0 0 0 0
0 0 0 0 0 0 0 0 0 0 0 0 0 0 0 0 0 0 0 0 0 0 0 0 0 0 0 0 0 0 0 0 0 0 0 0 0 0 0 0 0 0 0 0
0 0 0 0 0 0 0 0 0 0 0 0 0 0 0 0 0 0 0 0 0 0 0 0 0 0 0 0 0 0 0 0 0 0 0 0 0 0 0 0 0 0 0 0
Wind_Speed
5 6 6 9 8 7 8 10 7 2 6 7 9 12 14 14 13 13 12 12 12 11 11 11 11 11 11 11 10 10 11 10 9 8 8 7 7 6 6 5 6 5 6 6
10 8 8 7 4 4 5 8 7 8 8 10 12 13 12 13 13 13 12 12 12 12 11 10 10 10 9 9 9 9 9 9 8 7 6 6 5 6 6 6 6 7 7 7
9 9 9 3 10 8 9 11 9 9 9 13 13 12 11 11 12 13 13 12 11 10 9 8 8 7 8 8 7 8 8 7 6 5 5 5 6 6 6 5 5 5 5 5
8 7 4 7 10 9 10 15 15 14 14 14 14 13 12 10 12 11 11 10 9 8 8 7 7 7 7 7 7 7 6 5 4 4 5 5 5 5 4 4 3 3 3 4
6 6 3 7 11 12 7 11 12 14 14 16 16 15 11 9 9 10 10 9 8 8 8 7 7 6 6 6 6 5 5 4 4 5 5 5 5 4 3 3 3 2 2 2
7 7 3 5 7 7 2 7 9 11 11 10 7 6 5 7 9 10 9 8 8 8 8 7 6 5 5 5 4 4 4 4 4 4 4 4 4 3 2 2 2 3 2 2
5 3 5 9 11 8 4 4 7 10 9 7 6 8 10 10 10 9 9 8 8 7 7 6 5 5 4 4 4 4 4 4 4 3 2 3 2 2 2 2 2 2 3 2
5 3 4 11 9 8 7 8 9 11 11 14 15 15 12 11 10 9 9 8 7 7 6 5 4 4 4 4 3 3 3 3 2 2 1 3 1 1 2 2 3 2 2 2
5 4 6 8 9 8 9 10 10 11 13 15 15 14 12 11 10 9 8 7 6 7 6 5 4 3 4 3 3 3 3 2 1 1 1 1 1 1 1 2 3 3 3 4
3 6 8 9 10 9 9 11 11 12 13 14 15 14 12 10 9 8 7 7 6 6 6 5 4 4 3 3 2 1 1 1 0 1 1 1 1 1 2 3 4 5 5 5
3 6 7 8 9 9 10 11 12 12 13 14 14 13 12 10 9 8 7 6 6 6 6 5 5 4 4 3 2 1 1 1 1 2 1 1 0 2 3 5 4 4 5 6
3 5 5 7 8 9 10 11 12 13 13 13 13 13 11 9 8 8 7 6 5 6 6 5 5 4 3 2 1 1 1 1 2 2 2 2 1 3 6 5 7 5 4 4
6 8 9 9 8 9 11 12 13 13 14 13 12 12 11 10 9 8 7 7 6 6 5 4 4 3 2 2 2 2 2 2 3 3 2 2 1 1 3 3 3 2 1 3
6 6 8 8 9 10 12 13 13 14 13 13 11 11 11 10 9 8 7 6 5 5 4 3 3 3 2 2 3 3 3 1 2 2 3 2 2 2 2 1 2 3 3 4
5 6 8 10 10 11 12 13 14 13 13 12 12 11 10 10 9 7 6 5 4 4 4 4 4 4 4 4 4 4 4 2 1 2 2 1 2 3 3 3 2 3 2 1
8 9 10 10 11 11 12 13 13 13 13 12 11 10 10 9 8 6 5 5 4 5 5 5 6 6 5 4 4 3 0 1 2 3 2 2 3 3 3 4 4 3 3 3
9 9 10 11 11 12 12 12 13 13 13 12 11 10 9 8 7 6 5 5 4 4 5 5 6 7 7 5 6 5 1 3 3 1 3 4 4 4 4 4 4 3 3 3
8 9 10 11 11 12 12 12 12 12 12 12 11 10 8 7 6 6 5 4 3 4 4 6 5 7 6 6 5 6 4 3 3 4 4 4 3 4 4 4 4 4 3 2
10 12 13 13 13 12 12 12 12 12 12 11 10 9 8 7 6 5 3 2 3 5 5 5 4 5 3 4 5 5 1 3 4 4 3 3 2 4 4 4 5 4 4 4
13 13 14 15 14 13 13 12 12 11 10 10 10 9 8 7 5 4 4 5 5 4 3 3 4 4 3 4 6 5 4 3 4 4 4 4 4 4 4 5 5 5 5 5
14 15 15 15 14 13 13 12 11 11 10 10 9 8 8 6 5 3 2 5 4 4 3 1 2 4 5 8 9 4 4 4 4 5 5 5 5 5 5 5 5 5 5 6
14 14 15 14 14 12 11 10 10 10 10 9 9 9 7 6 5 4 5 4 5 4 4 4 5 6 9 11 6 4 6 5 5 6 5 5 5 5 5 5 5 6 6 5
13 13 14 14 13 12 11 10 10 10 9 9 9 8 7 5 3 4 5 4 5 4 4 5 5 7 11 9 3 6 6 5 5 6 6 5 5 5 5 6 5 6 5 5
13 13 13 12 12 12 11 11 10 8 8 9 8 7 6 4 4 6 7 6 5 4 4 2 4 8 10 5 4 7 6 6 5 5 6 6 5 5 5 5 5 5 5 6
13 13 13 13 12 10 10 10 10 9 9 7 8 7 6 4 5 6 6 7 7 4 4 4 7 8 6 4 7 7 7 6 6 5 6 5 6 6 5 5 5 5 5 5
12 10 10 10 8 8 9 9 8 8 7 7 7 6 5 5 7 6 5 6 6 6 5 4 4 3 2 6 6 6 5 5 4 5 6 6 7 6 5 5 6 5 5 5
12 10 8 9 9 9 9 9 9 8 8 8 7 6 6 6 6 5 5 5 5 3 2 2 4 5 6 6 6 6 6 5 5 5 5 5 5 5 5 5 5 5 5 5
Wind_Direction
270 226 243 271 289 306 313 308 303 23 95 112 118 115 115 114 112 106 101 98 93 88 84 82 80 77 78 78 77 82 85 83 81 79 76 73 68 61 54 47 49 42 45 49
295 273 264 270 319 342 337 348 13 62 71 95 102 104 113 116 114 108 102 95 89 86 81 79 79 80 80 79 78 80 84 83 80 78 75 72 70 62 53 46 41 39 40 42
299 310 302 4 25 29 38 30 33 51 86 100 96 97 106 113 111 109 106 101 94 89 87 86 87 88 89 88 87 87 86 84 81 77 72 63 63 59 53 49 47 41 39 48
292 298 310 54 24 23 59 53 59 79 87 90 91 84 80 94 108 111 111 112 110 106 100 96 96 97 98 99 96 93 90 85 80 76 73 66 63 56 49 43 39 33 35 45
306 309 83 43 11 353 20 64 67 91 100 106 106 90 71 76 96 106 110 110 107 108 109 107 105 105 104 102 101 100 95 82 67 66 68 64 59 51 42 33 21 14 35 30
309 320 21 34 341 322 345 76 69 98 112 126 129 98 105 111 108 106 106 107 108 108 107 105 107 110 109 109 112 107 98 86 74 68 65 61 50 34 29 4 358 356 8 355
319 329 71 360 348 351 31 72 88 98 104 98 81 102 124 120 110 110 110 112 114 112 109 113 124 129 127 126 119 113 102 92 83 75 87 83 50 13 346 339 347 332 338 345
351 358 39 6 24 49 84 101 99 97 101 102 104 111 118 119 118 118 116 115 114 114 116 126 139 139 130 121 117 112 104 97 89 56 19 72 49 334 323 320 315 318 337 354
34 63 79 59 72 88 102 105 103 106 114 119 120 121 122 121 121 120 120 123 126 126 128 137 140 130 123 127 129 122 119 113 101 82 27 25 332 304 317 334 348 358 3 5
81 105 98 90 88 90 96 105 110 116 123 126 126 128 128 127 127 128 131 134 137 133 123 114 114 114 117 112 106 108 132 136 174 235 241 233 290 337 23 26 17 7 11 8
92 110 100 87 86 91 102 109 114 116 122 126 128 129 129 130 132 133 131 124 118 116 114 113 111 100 94 87 91 76 29 301 269 261 275 271 296 45 42 67 61 27 15 4
67 80 105 102 97 103 110 114 118 121 121 125 127 128 129 128 126 122 119 116 114 109 102 101 102 100 90 68 51 42 4 330 326 321 315 306 96 116 72 104 117 97 60 9
81 86 99 102 99 103 111 117 120 123 126 127 128 130 127 124 123 121 118 113 107 105 104 103 101 90 69 39 22 360 338 339 322 330 334 331 350 139 147 140 151 162 238 314
102 111 113 109 110 111 115 117 121 123 125 126 127 126 124 122 119 116 113 112 117 119 115 104 85 61 31 5 349 326 315 317 296 318 324 331 343 9 86 130 161 170 207 254
108 101 117 119 119 121 124 127 127 127 128 127 128 128 126 122 120 118 116 112 111 101 77 60 45 24 1 350 343 323 320 334 301 288 279 345 18 30 55 69 70 88 112 186
120 122 129 131 132 135 137 137 134 134 134 132 131 127 123 120 117 115 113 105 90 67 47 33 19 359 344 349 338 308 210 57 304 316 21 61 62 53 50 57 56 59 59 32
142 146 144 143 143 144 143 140 138 138 136 133 129 127 127 126 125 121 111 96 85 71 48 34 13 342 339 15 349 327 92 153 215 309 51 58 52 47 48 49 53 55 56 49
143 145 146 145 145 142 141 142 140 137 134 133 134 137 137 135 125 116 114 127 121 88 50 38 12 330 348 24 350 326 352 61 64 61 66 54 36 53 54 49 45 49 51 68
134 138 141 143 144 144 144 144 143 141 139 140 140 138 133 125 122 126 133 101 80 80 49 29 323 298 351 34 328 290 0 67 84 82 90 101 61 63 57 52 52 49 44 36
135 138 139 142 146 147 146 145 142 140 140 140 138 136 130 128 133 127 103 75 53 47 45 17 332 6 13 32 338 330 45 53 73 81 79 83 72 64 59 58 57 51 46 42
141 142 144 146 147 146 144 143 143 144 143 142 142 137 131 137 140 135 147 107 80 33 337 269 337 11 22 355 317 325 49 49 65 73 70 74 72 66 61 61 61 57 53 48
146 147 148 147 146 144 143 145 148 147 145 148 144 137 140 148 137 109 73 77 85 11 347 50 56 28 354 332 316 34 49 49 67 77 70 66 71 74 69 66 66 63 60 53
147 149 149 150 148 145 147 152 152 149 152 151 145 150 160 165 160 143 113 89 79 33 34 49 18 343 337 319 355 66 59 53 63 77 82 74 72 74 76 74 71 68 64 58
151 151 151 150 149 152 157 157 150 153 159 155 152 156 160 159 126 103 105 104 73 62 75 69 307 308 312 301 40 53 53 55 62 72 83 88 81 75 74 75 77 77 75 67
155 154 155 156 159 161 161 156 154 164 168 159 155 164 185 163 126 114 118 128 149 175 157 189 249 276 290 50 70 70 60 49 37 42 69 72 82 80 73 70 69 66 61 61
158 161 160 165 163 162 165 167 169 174 171 164 167 177 168 133 126 135 155 156 163 204 217 195 186 205 89 74 76 87 102 111 96 76 70 74 77 78 76 76 76 73 65 55
163 163 165 173 171 175 178 178 176 176 174 174 172 164 152 151 158 164 172 164 166 177 144 100 85 81 77 78 79 80 79 77 78 84 85 83 86 89 87 78 72 75 76 63